CDT,Max TemperatureF,Mean TemperatureF,Min TemperatureF,Max Dew PointF,MeanDew PointF,Min DewpointF,Max Humidity, Mean Humidity, Min Humidity, Max Sea Level PressureIn, Mean Sea Level PressureIn, Min Sea Level PressureIn, Max VisibilityMiles, Mean VisibilityMiles, Min VisibilityMiles, Max Wind SpeedMPH, Mean Wind SpeedMPH, Max Gust SpeedMPH,PrecipitationIn, CloudCover, Events, WindDirDegrees
2012-7-1,95,84,73,74,71,65,94,69,44,29.99,29.93,29.87,10,9,6,14,4,21,0.01,0,Rain-Thunderstorm,62
2012-7-2,102,85,67,71,67,63,93,62,31,30.00,29.96,29.91,10,9,3,37,5,45,0.65,2,Rain-Thunderstorm,150
2012-7-3,96,83,70,73,68,65,84,62,39,29.98,29.92,29.85,10,10,10,15,8,21,0.00,0,,221
2012-7-4,99,87,75,72,69,64,87,60,33,29.94,29.91,29.88,10,10,10,16,7,21,0.00,0,,228
2012-7-5,104,88,71,69,66,62,84,57,29,29.97,29.95,29.92,10,10,10,14,4,18,0.00,0,,274
2012-7-6,104,89,74,75,71,65,87,58,29,30.02,29.97,29.92,10,10,10,12,2,16,0.00,0,,106
2012-7-7,102,89,75,79,73,64,85,57,29,29.99,29.95,29.89,10,9,2,26,3,37,0.23,1,Rain,84
2012-7-8,90,78,65,74,69,60,90,75,59,30.04,29.99,29.96,10,10,9,23,9,29,0.19,2,Rain-Thunderstorm,37
2012-7-9,90,77,63,68,62,59,93,65,37,30.05,30.02,29.98,10,10,10,14,6,17,0.00,1,,54
2012-7-10,91,78,64,63,60,55,87,62,36,30.07,30.04,30.01,10,10,10,18,8,24,0.00,0,,56
2012-7-11,90,77,63,68,62,57,84,61,37,30.12,30.07,30.03,10,10,10,9,6,,0.00,3,,54
2012-7-12,94,78,61,71,63,58,84,58,32,30.06,30.03,30.00,10,10,10,9,5,13,0.00,1,,77
2012-7-13,92,79,65,69,65,63,87,63,38,30.07,30.03,29.99,10,10,7,13,5,15,0.00,0,,146
2012-7-14,87,77,67,71,68,64,87,71,55,30.09,30.04,30.00,10,10,10,12,3,23,T,2,Rain-Thunderstorm,166
2012-7-15,94,81,68,71,67,62,90,63,36,30.10,30.05,29.99,10,10,9,13,5,17,0.00,1,,212
2012-7-16,96,85,73,72,69,66,87,63,39,30.04,29.97,29.88,10,10,10,15,7,24,0.00,0,,210
2012-7-17,98,87,76,73,70,66,87,63,38,29.92,29.88,29.82,10,10,10,24,7,29,0.00,2,Thunderstorm,228
2012-7-18,102,89,76,76,70,64,82,57,31,29.93,29.89,29.83,10,10,10,20,6,28,T,1,,242
2012-7-19,99,87,74,72,70,67,82,62,41,29.92,29.87,29.84,10,10,10,21,10,29,T,1,Rain,309
2012-7-20,86,75,63,70,66,59,84,68,51,30.06,30.01,29.92,10,10,10,18,10,25,T,5,Rain,11
2012-7-21,91,75,58,67,61,57,93,65,37,30.12,30.08,30.04,10,10,7,10,3,22,0.00,0,,81
2012-7-22,96,84,71,66,62,59,74,53,31,30.14,30.07,30.00,10,10,10,15,6,22,0.00,0,,190
2012-7-23,102,90,77,70,66,59,67,49,31,30.06,30.00,29.94,10,10,10,17,12,24,0.00,0,,226
2012-7-24,98,87,76,73,70,68,74,58,42,29.96,29.92,29.88,10,10,10,16,8,21,0.00,0,,90
2012-7-25,104,89,74,72,68,62,93,60,26,29.92,29.80,29.66,10,10,10,22,10,29,T,2,Rain-Thunderstorm,194
2012-7-26,89,82,74,71,67,62,69,60,50,29.82,29.76,29.66,10,10,10,22,10,32,0.00,2,,267
2012-7-27,91,80,68,65,61,56,81,57,32,29.99,29.89,29.83,10,10,10,22,10,29,0.00,1,,290
2012-7-28,87,76,64,65,61,59,87,64,40,30.12,30.08,30.00,10,10,10,15,6,,0.00,1,,10
2012-7-29,90,75,60,64,60,56,87,63,38,30.12,30.03,29.94,10,10,10,14,6,20,0.00,0,,140
2012-7-30,92,79,66,70,65,61,87,64,41,29.96,29.92,29.87,10,10,10,13,5,17,0.00,3,,102
2012-7-31,99,84,68,70,67,64,90,62,33,29.95,29.90,29.84,10,10,9,18,6,24,0.00,1,,333